Sao Paulo, Brazil

6:00 PM -03 on May 23, 2017 (GMT -0300)
Congonhas International

Weather History for SBSP - February, 2014

Change the Weather History Date:

Thursday, February 27, 2014

  Actual Average Record
Temperature  
Mean Temperature 82 °F -  
Max Temperature 90 °F 80 °F 91 °F (2003)
Min Temperature 74 °F 66 °F 60 °F (2004)
Cooling Degree Days 17    
Growing Degree Days 32 (Base 50)    
Moisture  
Dew Point 62 °F    
Average Humidity 54    
Maximum Humidity 73    
Minimum Humidity 22    
Precipitation  
Precipitation 0.02 in - - ()
Sea Level Pressure  
Sea Level Pressure 29.95 in    
Wind  
Wind Speed 6 mph ()    
Max Wind Speed 15 mph    
Max Gust Speed 25 mph    
Visibility 7.8 miles    
Events Thunderstorm    
Averages and records for this station are not official NWS values.
T = Trace of Precipitation, MM = Missing Value Source: Averaged Metar Reports

Daily Weather History Graph

Daily Weather History Graph

Search for Another Location

Airport or City:

Trip Planner

Search our weather history database for the weather conditions in past years. The results will help you decide how hot, cold, wet, or windy it might be!

Date:

Astronomy

Feb. 27, 2014 Rise Set
Actual Time 6:01 AM -03 6:37 PM -03
Civil Twilight 5:38 AM -03 7:00 PM -03
Nautical Twilight 5:11 AM -03 7:27 PM -03
Astronomical Twilight 4:43 AM -03 7:54 PM -03
Moon 4:01 AM -03 (2/27) 5:11 PM -03 (2/27)
Length of Visible Light 13h 22m
Length of Day
12h 36m
Waning Crescent, 4% of the Moon is Illuminated
Feb 27
Waning Crescent
Mar 1
New
Mar 8
First Quarter
Mar 16
Full
Mar 23
Last Quarter

Hourly Weather History & Observations

Time (-03) Temp. Heat Index Dew Point Humidity Pressure Visibility Wind Dir Wind Speed Gust Speed Precip Events Conditions
12:00 AM 77.0 °F - 64.4 °F 65% 29.98 in - NE 2.3 mph - N/A   Clear
1:00 AM 78.8 °F - 64.4 °F 61% 29.98 in - NNE 2.3 mph - N/A   Clear
2:00 AM 77.0 °F - 66.2 °F 69% 29.98 in 6.2 mi ENE 3.5 mph - N/A Thunderstorm Mostly Cloudy
3:00 AM 77 °F - 65 °F 57%  in 9 mi NE 3.5 mph - -   Scattered Clouds
3:00 AM 77.0 °F - 64.4 °F 65% 29.95 in 6.2 mi NE 3.5 mph - N/A Thunderstorm Scattered Clouds
4:00 AM 75.2 °F - 64.4 °F 69% 29.95 in - North 4.6 mph - N/A   Clear
5:00 AM 75.2 °F - 64.4 °F 69% 29.95 in - North 4.6 mph - N/A   Clear
6:00 AM 75.2 °F - 62.6 °F 65% 29.95 in - North 2.3 mph - N/A   Clear
7:00 AM 75.2 °F - 64.4 °F 69% 29.98 in - NW 6.9 mph - N/A   Clear
8:00 AM 78.8 °F - 64.4 °F 61% 30.01 in - NW 5.8 mph - N/A   Clear
9:00 AM 82 °F - 64 °F 45%  in 12 mi NNW 6.9 mph - -   Clear
9:00 AM 82.4 °F 83.9 °F 64.4 °F 54% 29.98 in - NNW 6.9 mph - N/A   Clear
10:00 AM 86.0 °F 86.6 °F 62.6 °F 45% 29.98 in - NW 10.4 mph - N/A   Clear
11:00 AM 86.0 °F 86.1 °F 60.8 °F 43% 29.98 in 6.2 mi NNW 11.5 mph - N/A   Scattered Clouds
12:00 PM 89.6 °F 89.5 °F 60.8 °F 38% 29.98 in 6.2 mi NW 10.4 mph - N/A   Scattered Clouds
1:00 PM 89.6 °F 89.5 °F 60.8 °F 38% 29.95 in - NW 12.7 mph - N/A   Clear
2:00 PM 89.6 °F 88.9 °F 59.0 °F 36% 29.92 in - WNW 13.8 mph - N/A   Clear
3:00 PM 89 °F - 55 °F 22%  in 12 mi NNW 11.5 mph - -   Partly Cloudy
3:00 PM 87.8 °F 86.1 °F 55.4 °F 33% 29.89 in - NNW 11.5 mph - N/A   Clear
4:00 PM 89.6 °F 87.7 °F 55.4 °F 31% 29.86 in - NW 12.7 mph - N/A   Clear
5:00 PM 87.8 °F 86.1 °F 55.4 °F 33% 29.89 in 6.2 mi NW 11.5 mph - N/A   Unknown
5:18 PM 87.8 °F 86.5 °F 57.2 °F 35% 29.89 in 6.2 mi WNW 10.4 mph - N/A Thunderstorm Thunderstorm
6:00 PM 84.2 °F 84.4 °F 60.8 °F 45% 29.89 in 6.2 mi West 8.1 mph - N/A Thunderstorm Thunderstorm
7:00 PM 75.2 °F - 66.2 °F 73% 29.95 in 6.2 mi South 15.0 mph - N/A Thunderstorm Mostly Cloudy
8:00 PM 75.2 °F - 66.2 °F 73% 29.98 in - East 6.9 mph - N/A   Clear
9:00 PM 74 °F - 65 °F 68%  in 12 mi East 6.9 mph - -   Mostly Cloudy
9:00 PM 75.2 °F - 66.2 °F 73% 29.98 in - East 6.9 mph - N/A   Clear
10:00 PM 75.2 °F - 64.4 °F 69% 30.01 in - ESE 3.5 mph - N/A   Clear
11:00 PM 75.2 °F - 62.6 °F 65% 30.01 in 6.2 mi SSW 10.4 mph 25.3 mph N/A   Scattered Clouds